This is the latest recevied weather packets stored in our database for station/object IZ1UQG-2. If no packets are shown the sender has not sent any weather packets the latest 10 day(s).
| Time | Temp. | Humidity | Pressure | Rain* | Wind** | Luminosity | Snow |
|---|---|---|---|---|---|---|---|
| 1777870083 | 14.44° C | 70% | 1015.6 hPa | 0 mm | - | 35 W/m² | - |
| 1777870024 | 14.44° C | 70% | 1015.5 hPa | 0 mm | - | 33 W/m² | - |
| 1777869844 | 14.44° C | 70% | 1015.5 hPa | 0 mm | - | 30 W/m² | - |
| 1777869783 | 14.44° C | 70% | 1015.4 hPa | 0 mm | - | 28 W/m² | - |
| 1777868884 | 13.89° C | 71% | 1015.2 hPa | 0 mm | - | 12 W/m² | - |
| 1777868463 | 13.89° C | 71% | 1015.2 hPa | 0 mm | - | 9 W/m² | - |
| 1777868104 | 13.89° C | 71% | 1015.2 hPa | 0 mm | - | 5 W/m² | - |
| 1777867932 | 13.89° C | 71% | 1015.2 hPa | 0 mm | - | 5 W/m² | - |
| 1777867684 | 13.89° C | 71% | 1015.3 hPa | 0 mm | - | 5 W/m² | - |
| 1777867563 | 13.89° C | 71% | 1015.2 hPa | 0 mm | - | 0 W/m² | - |
| 1777867505 | 13.89° C | 71% | 1015.3 hPa | 0 mm | - | 0 W/m² | - |
| 1777867334 | 13.89° C | 71% | 1015.2 hPa | 0 mm | - | 0 W/m² | - |
| 1777866964 | 13.89° C | 70% | 1015.3 hPa | 0 mm | - | 0 W/m² | - |
| 1777866844 | 13.89° C | 70% | 1015.2 hPa | 0 mm | - | 0 W/m² | - |
| 1777866305 | 14.44° C | 70% | 1015.1 hPa | 0 mm | - | 0 W/m² | - |
| 1777866064 | 13.89° C | 70% | 1015.1 hPa | 0 mm | - | 0 W/m² | - |
| 1777865644 | 14.44° C | 70% | 1015.1 hPa | 0 mm | - | 0 W/m² | - |
| 1777865534 | 14.44° C | 70% | 1015.1 hPa | 0 mm | - | 0 W/m² | - |
| 1777865105 | 14.44° C | 69% | 1015.2 hPa | 0 mm | - | 0 W/m² | - |
| 1777864744 | 14.44° C | 68% | 1015.1 hPa | 0 mm | - | 0 W/m² | - |
| 1777864204 | 14.44° C | 69% | 1015.2 hPa | 0 mm | - | 0 W/m² | - |
| 1777863844 | 14.44° C | 69% | 1015.2 hPa | 0 mm | - | 0 W/m² | - |
| 1777863734 | 14.44° C | 68% | 1015.1 hPa | 0 mm | - | 0 W/m² | - |
| 1777863484 | 14.44° C | 68% | 1015.2 hPa | 0 mm | - | 0 W/m² | - |
| 1777862705 | 14.44° C | 68% | 1015.1 hPa | 0 mm | - | 0 W/m² | - |
* Rain latest hour (hover to see other rain measurements)
** Current wind speed in m/s (hover to see current wind gust speed)